Weather in Ivanivka

Ukraine / Kirovohrad Region     48°24′27″N   33°19′59″E
temp.,
°C
wind,
m/s
gust,
m/s
humid.,
%
clouds,
%
prec.,
mm/h
press.,
hPa
HPBL,
m
19 april, mon
mon1900:00+8ne3476100 0.0 101782
03:00+7nne3383100 0.0 101682
06:00+6nne349395 0.0 101696
09:00+8nne3376100 0.0 1016404
12:00+12nnw2260100 0.0 10151101
15:00+13nnw425298 0.1 10141451
18:00+12n445579 0.0 1013936
21:00+9n356895 0.0 1014179
20 april, tue
tue2000:00+8ne3573100 0.0 1012104
03:00+7nne4676100 0.0 1010129
06:00+7nne4883100 0.0 1008212
09:00+8nne5781100 0.3 1007345
12:00+10n6878100 0.6 1005630
15:00+10nnw6981100 1.0 1004599
18:00+11nw71169100 0.4 1004770
21:00+10wnw71272100 0.4 1007646
21 april, wed
wed2100:00+9wnw5107799 0.0 1008405
03:00+6w588646 0.0 1010273
06:00+4wsw49915 0.0 1011205
09:00+10w56695 0.0 1013581
12:00+13w5552100 0.1 10141808
15:00+15w463884 0.1 10142253
18:00+15wsw454597 0.0 10141584
21:00+11sw486798 0.1 1016250
22 april, thu
thu2200:00+9sw3579100 0.1 1017122
03:00+9s357898 0.1 1017158
06:00+7s359199 0.0 1018167
09:00+11ssw347784 0.0 1019533
12:00+15sw345333 0.1 10191465
15:00+16sw4543100 0.2 10181997
18:00+15sw2354100 0.0 101878
21:00+12s356260 0.0 101987
23 april, fri
fri2300:00+10ssw477363 0.0 1019156
03:00+9s497996 0.0 1019195
06:00+7s4108330 0.0 1019226
09:00+12s6116487 0.0 1018512
12:00+16ssw8115068 0.0 10181493
15:00+18ssw9104399 0.1 10162422
18:00+15sw91357100 0.6 10151432
21:00+10wnw3592100 2.2 1017292